Theta_e
328 327 327 326 326 326 327 327 327 326 326 325 324 323 322 321 317 314 315 317 319 322 324 321 325 328 328 326 328 328 328 325 322 324 324 323 321 316 315 314 318 316 315 316 314 316 315 316 318 320 321 321 322 321 319 317 317 315 319 322 324 318 317 315 315 317 322 321 318 313 311 311 311 310
328 326 326 326 325 326 325 326 327 327 326 324 324 324 324 323 319 317 315 316 321 321 324 324 323 326 327 326 326 327 327 320 323 325 325 323 322 315 313 312 313 311 313 313 310 311 314 317 319 322 321 320 320 318 316 315 315 317 321 322 322 318 317 317 318 320 320 315 311 310 310 310 309 308
328 328 326 326 326 327 326 326 327 328 327 325 325 324 324 322 322 319 318 314 318 323 321 323 325 326 326 326 326 326 324 321 323 325 325 325 319 314 314 312 312 312 313 311 311 315 314 312 314 318 319 319 318 317 317 319 318 320 321 319 316 317 316 317 319 320 317 314 311 312 311 309 309 309
328 328 327 326 326 328 328 327 327 328 328 328 326 323 323 323 323 321 318 317 315 321 322 322 323 326 325 326 324 324 324 322 321 325 325 324 318 318 318 312 311 311 311 311 316 323 317 313 315 318 320 320 319 319 320 320 321 321 316 312 313 314 314 315 317 319 316 313 311 311 312 310 310 311
327 327 327 327 327 327 327 327 327 328 328 327 326 324 323 323 323 321 319 317 315 318 320 322 323 325 325 323 325 323 323 322 324 322 324 323 321 321 319 316 310 310 309 308 311 313 310 312 319 320 319 320 319 316 315 316 313 314 313 310 310 309 312 315 315 316 315 314 312 312 313 313 313 312
327 327 326 326 327 328 326 327 328 327 326 325 325 324 323 323 322 323 320 318 317 315 317 320 323 323 325 322 324 322 322 322 323 323 323 322 322 322 319 317 313 309 309 308 310 310 310 311 314 313 311 311 311 310 310 311 310 312 308 304 306 310 313 314 311 312 316 315 314 312 312 313 313 313
327 326 325 325 326 327 327 327 327 327 326 325 324 324 324 322 322 322 323 320 317 317 317 321 321 321 322 321 322 323 323 323 324 322 321 321 323 323 320 318 317 306 307 307 309 309 309 310 311 310 309 309 308 307 308 308 308 307 305 303 306 307 308 309 307 307 313 316 316 314 313 311 312 313
326 326 326 326 325 325 325 327 327 328 327 324 324 324 323 322 322 322 322 322 320 318 317 319 321 321 319 318 323 323 324 323 323 322 322 323 323 322 320 319 318 309 307 307 308 309 309 310 309 309 308 308 307 307 308 307 307 305 305 304 305 304 304 303 303 303 305 309 312 312 310 310 312 314
326 325 325 325 325 325 324 325 326 327 326 325 324 323 323 322 322 322 322 321 320 319 318 318 321 321 319 319 321 323 321 321 321 322 321 321 321 320 320 321 320 308 307 308 309 308 308 308 308 308 307 306 306 306 307 306 305 305 304 304 303 303 302 302 302 302 302 301 303 310 310 307 309 312
325 325 326 326 325 324 324 324 325 325 323 324 323 322 322 322 322 322 321 321 320 320 319 318 318 320 317 317 319 322 321 319 319 319 320 321 321 319 318 319 319 314 313 313 311 307 307 308 307 307 306 306 305 306 306 305 305 305 304 304 303 302 301 301 300 300 299 299 299 300 303 304 306 308
325 325 325 325 325 324 323 323 323 322 322 323 322 321 321 321 321 320 320 320 320 320 319 318 319 319 319 316 315 319 322 321 321 318 317 316 319 319 318 317 318 317 314 311 308 310 311 309 308 306 306 306 305 305 304 304 305 304 302 302 302 301 301 300 300 299 299 298 297 297 297 299 303 306
325 325 326 325 325 325 325 324 322 323 322 323 323 322 322 321 321 320 319 319 319 319 318 318 317 319 317 315 318 321 320 319 317 319 317 314 314 316 317 317 314 315 314 311 311 308 309 307 306 305 305 305 304 303 304 305 305 304 301 301 300 300 300 299 299 299 299 299 298 297 297 296 296 301
324 324 325 325 325 327 327 321 319 320 320 323 322 321 322 321 320 319 319 319 319 318 318 317 317 317 317 314 314 315 316 315 314 315 315 313 314 315 314 314 317 315 314 312 311 310 310 308 308 307 306 304 303 304 305 305 305 302 300 299 299 299 299 299 299 299 299 298 298 297 297 297 296 295
323 324 324 325 326 322 320 317 310 308 310 315 323 322 322 321 320 319 318 318 319 318 317 316 316 315 315 312 313 314 316 317 315 312 311 310 311 311 309 309 310 316 315 312 310 310 311 310 308 309 307 307 307 305 305 304 303 301 299 299 299 299 299 298 299 299 299 298 298 297 297 296 296 294
322 323 324 323 324 321 319 317 307 305 305 305 309 310 315 319 321 318 318 317 319 317 317 317 316 316 315 314 313 315 315 315 312 310 310 310 309 307 306 303 304 315 316 313 311 309 311 311 308 309 308 308 306 304 302 301 301 300 299 299 299 299 299 299 298 298 298 298 298 297 296 296 296 294
321 321 322 321 322 323 323 321 319 311 304 303 305 305 307 307 309 311 318 318 318 318 317 316 316 316 316 316 312 314 314 312 310 310 309 310 309 307 306 304 304 311 317 313 310 308 311 312 309 307 308 307 304 302 300 300 299 299 299 299 299 299 299 298 298 298 297 297 296 296 296 295 294 294
320 320 320 320 321 323 322 324 321 318 312 304 304 305 305 305 304 305 307 309 321 321 318 317 316 317 317 316 312 313 314 314 309 308 308 309 310 309 308 305 305 309 315 311 308 305 307 308 306 305 303 302 301 300 300 300 299 299 299 299 299 298 298 298 298 297 297 296 296 295 295 294 294 294
319 320 320 319 319 318 320 319 317 315 312 315 315 314 314 315 310 303 304 303 306 313 320 318 316 317 317 316 314 313 314 313 310 307 307 310 310 309 309 309 308 310 313 309 305 301 302 304 303 300 299 300 300 300 300 299 299 299 299 299 298 298 298 298 297 297 297 296 296 295 295 295 294 294
308 312 318 318 317 317 316 315 315 315 314 315 317 316 315 314 314 314 314 317 318 317 320 319 318 317 317 317 316 315 313 313 313 311 310 311 311 309 308 308 308 309 309 307 304 299 300 301 299 298 298 300 299 300 299 299 299 299 299 298 298 298 298 297 297 297 297 296 296 295 294 294 293 293
305 306 307 313 317 317 316 311 303 309 315 316 313 310 308 307 306 302 298 294 306 314 314 312 310 308 308 307 316 315 313 314 313 311 312 312 310 310 308 305 305 304 304 305 303 299 298 299 298 297 299 299 299 299 299 298 299 299 298 298 298 298 297 297 297 297 296 296 295 295 294 293 293 292
302 302 304 306 310 315 314 303 300 302 307 312 309 307 306 305 303 301 300 295 294 294 294 294 295 296 296 301 307 304 304 310 311 312 310 309 311 309 305 303 304 303 301 300 305 302 298 300 299 297 298 298 298 298 298 299 298 298 298 298 298 298 297 297 297 297 296 296 295 295 294 294 293 294
300 301 301 303 303 307 304 295 297 300 308 310 308 307 306 304 302 302 303 302 300 296 296 296 296 296 296 296 300 302 302 302 307 312 309 310 311 308 306 303 302 298 299 300 305 301 299 300 300 298 299 298 299 298 298 298 298 298 298 298 298 297 297 297 297 297 296 296 295 295 294 294 294 291
299 299 299 298 296 299 297 294 295 297 306 310 309 308 306 303 302 303 305 305 306 306 305 305 305 303 303 306 307 304 300 303 308 313 313 312 310 307 305 302 300 300 298 301 304 301 299 299 299 297 296 296 300 300 298 297 297 298 298 298 298 297 297 297 297 297 296 296 296 295 294 294 293 291
298 298 298 297 292 292 292 293 294 295 299 308 309 309 306 305 304 306 304 304 304 303 302 302 302 302 303 304 305 305 305 306 307 308 310 311 310 306 303 304 305 304 300 300 302 303 300 300 297 299 298 294 292 297 297 297 297 297 297 297 296 297 297 296 296 296 296 296 295 295 294 294 293 291
296 296 297 296 293 292 292 293 293 294 296 299 303 303 302 302 302 301 302 301 301 302 301 301 301 301 301 301 301 301 302 302 303 303 302 303 305 306 305 304 301 298 298 300 300 304 300 299 297 300 300 299 297 296 296 295 296 296 297 297 296 295 295 294 295 294 295 295 294 294 294 294 295 293
296 296 296 296 294 292 292 292 293 294 294 295 300 297 294 294 295 302 302 302 302 301 301 300 299 299 299 299 298 299 299 300 301 301 301 301 302 302 302 302 300 298 298 300 298 304 301 299 299 299 299 297 296 296 294 294 295 296 296 296 296 296 295 294 294 293 293 293 293 293 293 295 295 295
294 295 296 296 294 292 292 292 292 293 294 296 295 293 294 294 295 298 300 299 300 299 299 298 297 297 298 297 297 297 298 299 299 300 300 301 300 300 300 301 301 300 300 302 304 304 302 300 300 301 298 298 296 294 293 292 291 293 295 294 294 294 294 294 294 294 293 293 293 295 293 293 294 294
294 293 294 294 292 293 293 293 293 292 293 294 293 294 294 295 296 300 299 298 298 296 296 296 296 296 297 297 296 296 297 298 298 299 299 299 300 300 299 300 299 300 301 302 302 302 302 299 298 298 299 297 294 293 291 290 291 293 293 290 291 292 292 292 292 293 292 292 291 291 291 291 292 291
293 292 291 291 292 292 293 293 294 294 294 293 293 294 295 299 299 299 298 297 297 296 295 295 296 296 296 296 297 298 298 298 298 298 298 298 299 299 299 298 298 299 299 299 300 300 300 298 296 297 297 297 294 292 292 290 289 289 290 292 290 291 290 290 290 290 290 290 291 290 290 291 292 292
292 291 292 292 292 293 294 295 295 295 295 293 294 294 296 299 299 299 298 297 297 296 296 295 296 296 297 297 298 298 298 297 297 297 296 297 297 298 297 296 296 297 297 298 298 298 297 296 296 295 294 293 293 291 290 289 288 289 290 291 290 290 290 289 289 289 290 290 290 290 289 289 290 292
294 293 293 292 292 292 292 292 293 294 294 295 296 297 297 297 297 297 298 297 297 296 296 296 296 297 298 298 297 297 296 295 296 296 295 295 295 296 296 295 294 294 295 296 296 296 295 295 295 295 292 291 291 290 290 291 289 289 289 289 289 286 289 288 288 288 288 288 289 288 288 288 288 291
295 294 293 293 294 293 294 294 294 294 294 294 293 295 296 296 295 296 296 296 296 297 297 296 296 296 296 296 296 296 296 296 296 296 296 295 295 295 295 293 292 293 293 293 294 294 293 294 294 294 293 292 290 290 291 290 288 288 288 288 288 287 288 287 287 289 289 288 288 287 286 286 286 287
293 293 292 291 292 292 290 290 291 292 293 292 294 294 294 295 295 294 294 293 293 294 294 294 294 294 295 295 295 295 295 295 296 297 296 296 296 295 295 293 292 292 291 290 291 292 292 293 293 293 292 292 292 291 289 287 287 288 288 286 287 287 286 287 287 288 288 287 286 286 286 287 287 288
291 290 290 290 290 290 290 290 289 289 290 290 290 291 290 292 293 293 292 292 291 290 291 292 291 291 291 291 293 293 293 294 294 294 294 294 295 293 292 291 291 291 291 290 290 290 291 292 292 292 292 291 292 291 290 288 286 287 287 287 287 286 287 287 287 287 287 286 285 285 285 286 287 287
289 288 288 288 288 289 289 288 288 288 288 288 288 289 289 290 289 289 290 290 288 288 288 288 288 288 288 288 288 288 288 289 292 292 291 293 293 292 291 290 290 290 290 290 290 290 290 290 291 290 289 290 289 290 293 291 288 287 287 286 286 287 286 287 287 287 287 286 284 283 284 284 286 287
288 288 288 288 288 288 288 287 288 288 288 288 288 287 288 288 288 288 288 289 290 288 288 287 287 287 287 287 287 287 287 287 288 288 288 288 288 288 289 289 288 288 289 289 289 290 290 289 289 288 286 285 285 284 285 292 291 288 286 285 286 285 286 285 285 286 286 285 284 283 282 283 285 286
287 287 288 289 289 288 287 287 287 288 288 288 287 287 287 287 287 288 289 288 288 287 287 287 287 286 287 287 287 286 286 287 286 286 287 287 287 288 287 286 286 287 287 287 288 289 289 287 288 287 286 285 284 283 283 286 289 291 288 285 284 285 285 284 285 285 284 285 285 284 283 282 284 285
286 286 287 287 287 288 287 287 287 287 287 287 287 287 287 287 287 287 288 288 287 286 287 286 286 286 286 286 287 286 286 286 286 286 286 287 287 286 286 286 285 285 285 285 287 288 288 288 287 287 287 285 283 282 282 285 285 287 290 288 286 284 284 284 282 282 284 284 285 284 282 282 285 286
287 286 286 286 286 285 286 286 286 286 286 285 285 285 286 286 286 286 286 286 286 286 286 286 286 286 286 286 286 286 286 286 286 286 286 286 286 286 286 286 285 285 286 285 285 286 287 286 286 286 287 286 285 285 285 284 283 286 286 290 287 284 282 284 283 282 282 282 285 283 282 282 285 286
286 286 285 285 285 286 285 285 284 284 285 285 284 283 284 285 285 285 285 285 285 285 286 285 285 286 286 286 285 286 286 286 285 285 285 285 285 286 285 285 285 285 285 285 285 284 285 285 285 286 286 287 287 287 286 285 283 284 283 285 290 287 284 283 281 283 283 283 282 278 279 276 281 279
284 285 284 284 286 286 284 284 283 284 284 284 285 285 285 284 285 284 283 284 284 285 284 284 284 284 284 285 285 286 285 284 285 285 285 285 285 285 285 285 285 285 285 284 285 285 285 286 286 286 287 286 286 287 286 285 284 284 285 285 288 290 289 286 284 284 283 283 281 278 278 279 278 271
284 283 285 285 285 286 284 284 283 284 285 283 284 285 285 284 283 287 285 285 284 284 284 283 284 284 284 284 284 285 285 285 284 285 285 285 285 285 285 285 285 284 285 284 284 284 285 286 285 287 287 287 287 286 283 283 281 283 281 281 282 286 289 289 288 287 285 284 279 279 278 278 275 276
284 284 284 283 284 284 283 283 283 282 282 283 283 284 284 284 283 283 282 283 282 282 282 281 281 283 283 283 284 284 284 283 284 284 284 284 285 285 284 283 283 283 283 283 283 282 283 285 285 286 285 283 282 284 283 282 280 279 281 281 282 281 282 287 289 289 288 288 287 283 279 279 276 278
283 283 283 283 283 283 283 283 282 281 282 280 280 282 280 281 282 282 282 282 282 281 280 281 281 281 282 282 283 283 282 282 282 284 283 284 284 284 283 283 283 282 283 283 283 283 282 283 283 285 284 283 281 282 282 279 279 279 279 279 279 279 283 280 280 282 283 286 288 288 288 287 285 287
283 283 283 282 282 282 283 283 283 282 280 281 280 281 280 280 281 280 281 281 281 282 282 282 282 281 281 282 283 283 282 285 283 283 283 283 283 283 283 283 282 282 282 282 283 282 282 282 282 281 282 281 279 282 282 282 281 280 280 279 281 280 279 279 280 279 279 278 283 286 287 287 287 287
Wind_Speed
9 8 11 10 9 9 9 9 8 7 4 4 8 10 10 9 8 7 7 8 7 8 9 7 7 8 7 7 6 8 8 8 10 8 8 8 8 12 13 13 12 12 12 11 12 13 13 15 13 11 13 12 12 12 11 10 9 8 7 8 7 9 10 7 7 7 8 9 10 9 8 7 7 6
8 7 9 9 7 8 9 10 10 9 9 9 9 10 9 7 10 8 9 8 8 6 7 6 7 8 8 7 6 7 7 11 13 8 7 7 8 13 13 12 12 12 12 12 12 13 13 12 11 15 15 14 14 12 11 10 9 7 10 12 9 10 9 7 7 6 8 10 8 7 7 7 6 6
8 8 10 10 9 8 8 9 9 9 9 9 9 9 7 3 6 6 7 6 5 6 8 7 5 9 9 8 6 5 6 10 12 9 8 8 10 13 11 13 12 12 12 12 11 11 11 13 14 14 16 14 14 13 11 9 8 9 11 8 11 10 9 7 7 10 11 10 8 7 6 6 6 5
8 9 10 11 10 8 7 7 8 8 8 9 8 7 7 9 6 3 4 8 6 6 7 7 5 8 9 9 8 7 5 8 13 8 8 8 11 8 7 12 13 12 11 11 11 12 12 13 14 14 14 14 13 12 11 10 10 10 9 12 11 10 9 8 9 11 10 9 8 6 6 6 5 5
8 8 8 9 10 9 9 7 8 8 8 8 7 6 7 8 6 6 7 8 4 0 1 5 6 8 9 8 9 9 7 8 8 7 6 7 9 6 8 8 11 13 12 11 11 12 12 14 14 14 14 13 14 13 12 11 10 10 11 11 11 9 8 7 8 9 8 7 7 7 6 6 5 4
8 9 10 10 9 8 9 10 9 8 7 7 8 6 8 7 8 7 6 6 6 4 2 3 4 8 10 9 9 11 10 10 8 8 7 5 7 7 6 8 7 11 11 11 11 12 13 14 15 15 14 14 13 12 11 11 10 11 11 10 10 8 7 6 6 6 8 8 8 7 7 7 6 7
7 9 9 10 9 8 9 9 8 8 8 8 8 9 8 9 8 7 7 7 7 7 6 6 6 7 8 9 11 10 9 10 9 10 10 8 7 5 6 6 4 8 10 11 11 12 14 14 15 15 14 13 12 12 11 10 10 11 10 9 8 8 6 6 6 6 5 4 4 5 5 5 5 5
7 8 9 9 8 9 10 9 9 8 8 9 9 9 7 9 8 8 6 7 5 4 7 6 8 7 8 5 6 6 7 10 8 8 7 9 9 6 6 6 5 7 10 11 12 13 13 13 14 14 14 13 12 12 11 11 10 10 10 9 8 8 8 7 6 5 5 3 2 2 2 2 0 3
7 8 9 9 8 8 10 10 10 9 10 8 8 10 8 8 8 8 9 6 2 5 8 7 5 6 4 3 7 10 10 7 6 5 8 9 9 7 6 5 5 9 11 11 12 12 12 12 13 13 13 13 13 12 12 11 10 10 10 9 9 8 7 7 6 5 5 4 3 2 2 2 2 3
7 9 8 8 8 9 9 10 9 8 6 5 6 9 7 7 10 11 9 8 5 4 6 8 5 5 7 4 6 9 9 10 9 8 8 7 7 7 8 6 5 5 5 5 6 7 9 11 13 13 13 13 13 12 11 11 11 10 10 9 9 8 7 7 6 6 5 4 3 2 2 1 2 2
7 7 8 6 6 7 9 9 8 6 8 9 8 9 9 10 10 10 9 9 10 10 8 7 8 8 5 8 10 7 8 8 9 10 9 7 6 6 8 8 5 5 5 5 7 7 8 9 8 11 13 13 13 12 12 11 11 10 10 9 9 8 8 7 7 6 5 5 4 3 2 2 2 2
7 7 7 7 8 8 8 8 7 8 9 9 10 9 9 9 10 10 9 9 9 8 7 9 9 8 8 6 4 6 8 7 6 8 9 10 9 9 7 7 9 6 7 6 5 6 8 8 9 10 10 12 12 13 12 12 11 11 10 10 10 9 8 8 7 6 6 6 5 5 5 4 4 4
6 6 6 6 7 9 12 9 8 8 7 7 8 9 10 11 11 10 9 9 9 8 8 8 6 8 8 7 8 9 10 11 11 9 7 8 9 8 7 5 6 7 9 6 6 5 6 8 6 6 6 5 9 9 10 8 11 12 11 11 10 9 9 8 8 8 8 8 7 7 6 6 5 5
7 7 6 6 11 10 10 10 10 12 11 9 6 8 11 11 11 12 11 10 10 10 10 10 10 10 10 11 13 13 13 11 7 8 8 8 7 7 6 5 2 6 9 9 9 6 5 6 5 5 5 5 7 7 6 6 8 10 12 11 10 10 10 10 9 10 9 9 8 7 7 6 6 6
5 5 5 4 7 8 8 9 12 12 13 11 11 11 14 13 12 10 10 11 11 10 12 12 11 12 13 13 13 14 13 11 12 11 10 9 9 10 10 8 3 5 9 8 7 7 5 6 7 5 5 6 4 5 6 9 12 12 11 11 11 11 10 10 11 11 10 9 8 7 6 6 5 5
5 5 5 4 3 4 6 6 8 10 10 12 15 17 18 17 16 14 13 13 12 13 13 11 12 13 13 14 12 11 11 12 10 11 10 10 12 10 9 8 8 7 10 9 8 7 5 6 7 6 5 5 5 5 9 12 12 12 12 12 12 12 12 11 11 11 10 9 7 7 7 6 6 6
3 3 5 5 4 5 9 9 5 4 8 11 15 16 16 14 11 14 17 16 17 14 11 11 12 13 13 13 12 13 15 14 13 11 10 10 11 11 10 8 6 9 11 9 7 7 5 6 7 6 3 5 4 6 9 12 12 12 12 12 12 12 12 12 11 11 11 10 9 8 8 8 8 8
5 4 4 3 2 2 3 3 3 4 7 8 10 9 7 5 6 8 12 11 8 10 12 14 13 11 7 11 13 13 12 14 14 14 13 12 11 11 10 8 9 10 12 13 9 5 5 5 8 6 3 4 4 5 8 12 11 12 12 12 12 12 12 12 12 11 11 11 10 10 9 9 9 9
9 9 7 2 2 2 3 2 3 5 6 7 6 5 5 4 6 4 3 6 6 7 9 8 10 8 9 11 10 10 12 16 11 10 12 13 10 8 8 8 7 8 6 11 10 6 5 4 7 4 5 4 5 4 5 8 10 11 11 11 11 12 12 12 12 11 11 11 10 10 10 9 9 8
8 9 9 8 2 2 2 4 7 6 4 4 5 6 5 5 5 4 5 6 2 4 3 3 5 4 5 5 9 5 4 9 10 8 6 8 10 11 9 9 6 6 4 5 8 7 5 3 8 5 4 6 7 5 5 7 9 8 9 10 10 11 11 12 11 11 10 10 10 10 10 9 8 8
9 10 11 8 7 3 1 3 3 4 5 5 6 6 7 5 7 5 6 13 14 14 13 10 8 3 3 13 18 16 15 11 11 11 11 12 11 11 11 7 8 7 6 0 7 10 9 6 8 7 4 4 5 5 5 4 6 8 7 8 9 10 10 10 10 10 10 9 9 9 9 9 8 7
10 12 22 16 7 8 9 11 11 10 7 6 6 6 7 7 6 5 4 8 10 14 14 14 14 14 13 10 12 18 19 17 14 14 14 13 11 12 12 11 7 4 2 3 8 10 9 9 9 10 5 5 3 4 4 4 5 7 6 7 7 8 8 9 9 9 8 8 8 8 8 8 7 4
11 12 13 20 15 10 12 16 14 13 8 6 4 3 7 9 8 4 4 7 8 7 9 7 9 10 10 8 9 10 13 14 14 11 14 12 13 13 10 11 10 7 0 3 5 10 8 11 8 13 9 3 2 3 4 4 4 4 4 5 4 5 5 5 6 7 7 7 7 8 8 8 6 3
12 12 12 15 20 20 20 18 18 17 15 8 7 5 4 8 8 4 8 8 8 8 8 8 9 9 7 9 10 9 9 9 8 7 5 7 12 13 11 13 13 11 6 4 2 10 7 9 10 5 8 13 8 5 4 3 3 4 4 4 4 3 3 4 3 4 6 7 7 7 8 8 6 4
12 12 12 11 18 22 22 21 20 18 19 16 12 10 9 8 7 8 10 11 12 10 9 9 10 9 9 10 10 10 10 8 7 8 8 10 6 6 12 11 8 7 3 5 8 11 8 11 11 5 4 3 5 8 3 3 2 3 4 5 5 2 2 1 1 2 3 5 7 8 7 8 9 6
12 12 12 11 17 23 23 22 22 21 19 19 14 15 17 17 15 10 8 7 8 9 8 10 11 10 9 10 11 11 10 9 8 8 9 10 11 9 8 7 8 9 4 2 8 9 13 9 9 9 6 7 5 7 8 3 3 2 2 1 2 3 2 2 1 2 3 4 5 6 7 8 6 5
10 9 11 14 22 23 24 23 23 20 20 16 14 19 17 17 16 11 9 9 10 10 10 11 12 11 9 9 10 10 11 10 10 10 9 10 12 12 11 11 8 7 5 5 6 9 10 8 6 10 8 9 11 5 6 6 3 3 3 1 1 3 1 1 2 3 3 3 2 1 4 4 5 4
10 11 11 13 22 23 23 23 23 23 20 16 20 20 20 18 14 9 10 11 10 11 11 12 11 11 10 10 10 10 10 10 9 10 10 11 12 13 11 11 11 9 9 7 7 7 9 8 5 4 11 13 12 11 9 2 5 6 6 2 3 1 0 0 1 1 0 1 0 1 2 1 1 3
11 13 18 20 20 20 21 21 20 19 21 22 20 20 18 15 10 10 10 10 11 13 11 11 10 10 10 10 9 8 10 10 10 9 9 10 12 12 13 13 11 10 9 7 6 5 6 9 8 8 7 8 10 6 7 6 5 4 6 7 3 1 1 0 2 2 2 3 4 2 3 4 5 3
17 19 19 20 19 19 17 15 13 12 14 20 20 20 17 11 11 9 9 10 11 11 9 10 10 8 8 9 9 9 9 10 9 7 8 10 10 10 12 13 12 10 9 8 7 6 7 8 10 10 9 7 8 9 7 9 7 6 6 6 5 2 0 0 1 1 3 4 3 4 5 2 0 2
10 14 14 12 14 14 18 18 17 16 15 14 13 12 11 10 10 9 9 9 9 8 8 8 7 7 7 7 8 7 8 8 7 7 8 10 9 8 9 11 9 10 9 9 9 7 7 7 7 13 12 9 9 8 7 9 9 7 6 4 3 5 1 2 3 4 3 4 4 4 5 5 4 2
9 9 11 13 10 11 12 12 12 11 11 11 11 10 10 9 9 10 12 11 9 7 6 7 7 7 8 9 7 8 8 8 7 7 8 7 7 7 8 8 8 8 8 8 9 10 10 8 8 8 10 12 12 8 8 8 8 7 5 4 5 3 3 5 4 4 2 5 6 6 3 5 4 3
9 10 12 12 12 12 12 12 11 10 11 10 10 11 10 9 9 8 8 9 8 7 8 9 8 8 8 8 8 8 8 7 7 6 8 7 7 8 9 8 6 8 9 8 8 8 9 10 10 11 10 9 9 11 12 9 5 5 6 5 5 4 2 2 3 2 1 7 4 4 5 5 5 4
10 10 11 10 10 10 11 10 10 9 8 8 9 9 10 9 9 8 8 7 7 7 7 6 7 7 6 6 6 6 6 5 5 4 6 6 7 7 6 8 7 6 8 7 7 7 8 9 10 11 11 10 8 7 7 9 6 5 5 5 5 5 1 2 3 2 4 5 6 6 3 4 4 4
10 9 9 8 8 8 8 7 7 6 7 7 6 6 6 6 7 7 7 6 5 6 6 6 5 5 6 5 4 5 4 5 5 5 5 6 6 7 7 7 6 6 7 7 7 6 7 9 10 10 9 8 9 8 8 5 8 5 4 4 4 5 3 1 3 4 3 3 3 5 2 2 2 2
8 7 7 7 7 7 7 6 6 6 6 6 5 5 6 6 6 6 5 5 6 5 6 6 5 5 6 6 6 5 5 5 6 6 5 6 6 6 6 7 6 5 5 5 5 4 5 6 8 10 9 6 7 6 2 6 3 6 6 3 2 3 3 3 3 3 5 4 3 4 3 1 1 2
8 7 7 7 7 7 6 6 6 6 6 6 6 5 5 5 5 5 3 4 7 5 5 5 5 5 5 5 6 5 5 6 6 5 6 6 6 7 7 6 6 6 6 4 3 4 4 5 6 8 8 7 8 7 3 1 6 5 6 6 2 3 4 4 5 6 2 2 3 3 2 2 1 2
6 5 6 6 6 5 5 6 6 6 6 6 6 6 5 5 5 5 4 7 5 5 5 5 4 5 4 4 6 6 6 5 6 6 5 5 6 5 5 6 4 5 5 4 4 3 4 6 6 7 8 9 8 6 5 0 1 3 5 5 5 2 3 6 5 3 1 1 3 0 2 5 1 1
5 5 5 5 6 5 6 5 5 6 6 6 6 5 5 5 5 5 5 5 5 4 5 5 5 4 5 5 4 5 6 6 6 6 6 5 6 6 6 6 5 3 5 5 5 5 4 5 5 6 8 9 8 8 6 5 4 2 3 3 5 5 1 4 3 1 1 1 2 1 1 1 2 2
5 5 5 6 5 6 6 6 6 6 6 5 6 5 6 6 6 6 6 6 5 5 5 5 4 5 5 5 5 6 6 6 5 5 5 5 5 5 5 5 5 5 5 5 5 6 5 4 5 6 6 6 6 6 6 5 2 1 2 1 4 4 4 5 4 4 1 2 1 3 1 3 1 3
6 7 6 4 5 6 6 6 5 6 6 5 5 6 6 6 7 6 4 6 5 6 5 5 4 4 4 4 4 6 6 5 5 5 5 5 5 5 5 6 5 5 7 4 5 6 5 3 2 5 7 6 6 5 6 5 3 1 1 4 4 3 4 5 4 5 2 3 4 4 2 1 0 2
6 6 6 6 6 5 5 6 6 5 6 6 6 6 5 5 4 6 6 6 6 5 6 5 5 4 5 4 4 5 6 5 5 5 5 6 5 4 4 5 6 4 7 6 6 4 0 1 4 6 7 7 6 6 4 5 4 2 2 3 4 2 2 6 6 6 6 7 4 2 1 1 1 1
6 6 6 5 6 6 6 5 5 4 4 5 6 6 6 7 7 7 7 6 5 5 4 4 3 4 4 4 4 4 5 4 4 5 5 5 6 5 4 3 3 3 4 3 0 1 2 2 4 5 5 5 2 4 6 5 3 1 1 2 2 4 1 2 2 4 3 5 5 5 4 3 4 1
6 6 6 5 6 6 5 5 5 5 4 3 3 6 7 7 7 6 6 6 6 5 3 4 4 5 5 4 5 6 4 3 3 4 5 4 5 5 5 3 3 3 4 5 4 4 3 4 3 5 6 3 2 4 5 3 2 5 4 1 2 1 0 2 2 3 3 4 6 4 3 7 8 8
4 4 4 4 4 5 4 5 6 5 5 5 7 7 6 5 5 5 5 6 6 6 5 5 5 3 3 2 4 4 3 3 4 4 4 4 4 4 4 5 4 3 3 3 6 3 3 3 2 3 3 3 1 4 5 5 4 2 0 0 0 0 0 2 2 3 3 4 8 7 4 6 3 2
Wind_Direction
236 244 233 218 206 203 204 205 204 211 211 186 187 203 204 189 180 175 192 206 202 200 193 184 194 189 185 183 183 177 184 175 169 173 173 178 168 184 185 190 186 183 188 187 182 171 163 170 186 164 148 151 147 147 148 148 155 157 167 179 121 124 127 141 153 156 166 136 107 100 110 112 112 113
233 215 226 234 223 216 204 208 205 202 198 195 198 200 220 195 190 184 192 210 197 193 196 188 177 186 185 179 179 183 179 168 170 167 172 168 173 181 183 187 183 179 183 180 175 172 170 167 164 162 156 152 151 149 149 151 153 162 171 175 137 131 136 147 158 172 119 113 121 118 121 124 129 133
233 230 218 222 228 219 213 209 206 203 199 197 202 201 181 193 244 198 188 204 222 180 193 193 173 177 180 179 172 167 164 168 174 173 172 173 172 169 180 182 182 179 180 174 173 175 164 154 172 164 157 158 154 153 155 152 153 166 177 144 135 136 140 154 162 144 137 134 136 134 136 142 147 148
230 229 220 213 219 215 213 210 210 205 205 204 204 176 170 194 202 247 207 212 211 202 187 177 166 170 170 168 168 169 160 172 178 171 173 165 154 163 157 178 177 176 174 172 173 173 161 160 165 165 157 155 156 158 156 155 159 168 143 140 139 138 147 155 152 149 146 148 148 151 159 164 165 167
229 228 228 220 215 212 213 208 208 206 203 203 194 160 175 193 181 185 211 211 192 167 100 151 156 165 158 171 173 165 165 159 178 168 165 153 155 151 153 153 174 172 172 174 174 167 158 159 157 151 156 158 159 158 158 157 157 143 145 144 143 143 148 151 151 155 151 153 161 162 183 179 186 198
224 225 228 228 221 206 206 212 210 199 182 191 200 181 175 185 181 188 184 210 182 153 124 184 159 160 174 169 175 170 166 166 169 161 166 156 160 163 152 150 170 174 171 172 170 163 159 157 153 155 158 159 154 152 153 152 143 144 145 148 147 148 148 149 139 142 163 169 172 179 186 196 197 206
230 226 228 233 227 218 216 212 212 202 186 188 199 200 176 179 190 194 191 175 191 162 183 172 168 179 181 179 177 177 175 166 165 162 169 162 160 145 150 161 156 177 172 167 164 164 160 157 155 156 156 153 148 148 145 140 140 144 148 147 149 148 141 125 114 104 104 121 159 179 196 202 216 218
234 228 229 230 224 219 220 219 212 206 192 183 196 207 175 184 186 179 202 210 180 150 149 185 175 180 173 182 168 143 147 156 160 159 151 165 164 145 157 161 156 174 175 167 162 163 161 155 153 152 150 146 144 144 142 143 145 148 147 143 128 120 119 122 121 119 121 115 88 91 104 92 201 250
238 234 235 236 224 213 215 222 220 213 205 186 190 206 186 176 175 184 193 200 180 154 169 169 170 156 178 157 152 160 159 143 122 137 160 167 170 156 153 155 161 164 171 164 159 157 155 150 149 147 144 142 144 146 149 146 140 137 134 131 131 130 130 126 118 105 94 88 72 49 72 57 306 282
217 236 235 235 223 219 213 219 217 206 174 185 197 206 187 156 168 188 185 176 174 197 178 159 175 167 156 122 174 176 158 154 153 154 163 166 158 147 149 159 140 142 151 149 145 142 146 149 147 144 143 145 146 145 141 136 133 134 138 137 134 130 122 115 113 109 108 105 104 79 50 33 314 292
227 227 238 233 228 223 226 227 218 186 169 192 190 191 187 174 172 178 182 178 176 184 177 182 185 175 162 157 174 188 161 157 157 152 152 154 157 163 160 146 142 133 122 107 128 146 149 146 145 147 146 144 138 135 136 137 138 139 138 135 130 125 123 123 128 129 125 124 112 109 86 48 17 6
234 223 222 214 226 229 229 223 214 220 201 193 189 185 184 180 174 180 178 177 180 179 181 179 182 185 163 139 153 141 148 161 171 171 165 165 162 164 167 161 145 138 133 128 113 100 109 119 121 126 129 133 134 133 134 138 140 138 134 131 130 131 135 137 132 127 117 101 92 82 71 66 46 36
253 235 216 214 217 229 234 220 212 223 216 194 191 176 185 186 180 181 181 181 176 183 185 187 178 174 172 169 146 155 171 190 186 174 171 166 167 158 149 145 149 150 149 136 129 140 144 131 132 134 122 120 126 131 132 136 136 136 137 137 140 140 135 125 112 105 98 92 85 80 77 68 59 47
253 250 235 224 226 230 233 232 211 213 213 213 206 181 187 187 186 184 179 176 178 178 186 191 180 180 183 176 174 177 189 178 148 162 169 159 155 136 129 118 137 159 151 142 147 149 152 128 128 138 129 141 137 136 139 152 148 145 144 144 138 130 124 120 117 107 97 90 84 78 70 64 56 47
271 265 254 234 230 216 221 233 228 215 215 195 170 191 195 198 188 182 174 180 181 178 189 192 185 186 186 186 181 182 178 169 178 175 170 155 150 157 155 164 132 172 160 153 138 141 154 134 138 144 133 137 139 144 148 149 147 147 142 136 130 128 123 112 102 96 93 89 85 78 71 66 57 55
263 265 266 255 235 226 217 216 226 225 207 191 189 190 196 201 200 190 180 182 185 189 190 185 191 188 192 185 183 180 164 169 165 175 174 164 166 164 169 159 168 179 160 149 146 130 146 136 129 137 140 141 148 154 151 150 144 140 138 135 130 121 116 113 110 109 109 108 102 93 85 78 71 67
267 281 288 290 275 257 237 232 221 180 187 202 206 206 206 207 195 190 209 199 189 183 179 182 192 195 190 185 189 182 177 169 169 166 175 171 173 172 169 167 140 158 157 136 138 142 145 132 133 127 128 132 138 138 146 142 140 140 135 129 125 124 123 123 124 124 122 116 111 105 98 92 88 86
347 296 238 236 250 298 280 273 232 164 189 203 209 206 207 181 183 204 201 206 198 166 175 181 195 199 183 195 189 187 164 167 170 170 181 175 173 175 175 159 152 151 157 156 136 104 147 136 127 128 140 127 129 136 143 142 138 134 131 131 131 131 132 132 130 129 128 123 117 112 107 98 92 89
7 359 342 303 220 239 242 266 242 202 192 202 199 181 177 159 171 192 209 196 177 176 201 199 196 184 180 190 193 181 173 182 168 167 176 174 162 120 86 69 104 131 144 139 130 137 145 123 110 118 131 124 102 87 113 117 123 126 132 134 137 138 136 134 132 130 127 124 120 115 107 101 94 86
6 7 4 350 327 180 243 255 238 222 180 165 128 119 101 85 69 42 352 344 342 137 173 131 119 162 178 180 150 158 165 163 147 131 111 102 121 128 123 128 142 129 139 138 123 114 132 132 121 121 109 110 106 93 91 79 99 118 134 141 138 131 130 130 130 131 134 133 128 124 120 116 111 104
11 16 6 358 1 359 333 341 155 112 115 105 110 109 99 84 72 42 38 55 65 74 73 71 79 49 167 152 156 151 147 137 136 128 141 159 151 141 137 132 142 157 153 59 131 122 130 149 133 117 91 92 92 98 92 87 101 118 127 132 133 132 130 131 135 142 142 138 136 134 132 126 121 116
15 20 21 18 358 27 21 7 31 39 71 90 103 120 111 91 78 67 79 89 77 82 82 80 77 70 56 71 133 153 148 144 149 154 167 168 153 151 150 150 148 128 89 136 141 114 140 141 132 116 95 79 55 89 98 97 103 105 106 110 115 117 123 134 145 147 148 147 147 144 138 133 123 110
25 18 21 24 22 31 45 38 38 37 51 84 79 93 111 101 99 106 107 95 95 86 79 55 65 54 48 53 75 74 105 143 166 185 166 162 160 157 154 138 127 111 274 209 178 118 147 140 159 137 127 105 79 89 111 120 123 119 116 109 100 107 124 137 150 156 161 163 162 156 150 146 130 126
28 22 24 24 25 37 38 39 41 43 42 55 49 31 55 103 92 86 81 72 86 77 76 81 73 68 55 63 49 57 62 49 57 65 112 148 154 150 150 156 157 154 142 167 193 132 142 140 152 176 142 146 162 159 116 118 122 115 122 122 141 144 120 115 128 175 180 180 180 179 177 174 162 147
30 25 24 29 30 41 42 42 39 44 55 58 52 44 45 41 65 68 78 73 78 80 76 68 59 58 59 58 61 60 50 46 48 64 68 61 36 125 145 144 122 106 122 135 143 129 137 157 152 142 96 53 104 123 120 106 120 135 161 165 153 146 127 150 132 184 208 204 195 193 197 191 186 181
35 31 31 28 38 45 46 44 45 46 49 58 64 53 49 44 42 57 61 62 67 69 62 68 62 54 54 60 63 61 60 53 48 60 69 72 74 63 47 70 110 120 119 157 144 135 130 154 159 138 121 113 121 130 131 131 156 148 145 155 155 138 117 140 177 234 216 198 195 194 184 169 158 165
30 27 39 39 45 49 48 49 47 44 50 52 54 54 48 48 41 40 57 57 59 63 61 62 66 56 47 58 62 64 61 57 61 63 64 69 79 70 63 67 59 79 94 94 103 116 122 126 154 144 139 135 133 124 125 139 141 104 135 173 61 54 90 90 207 229 227 231 241 181 106 96 136 129
34 34 33 42 50 51 49 49 51 49 47 50 51 52 52 46 42 47 51 52 55 63 61 59 61 61 53 54 57 61 69 65 63 64 66 70 73 78 73 69 67 59 63 67 79 91 108 120 131 140 142 146 146 153 148 84 116 147 143 71 84 107 120 37 321 280 297 266 244 198 118 120 257 109
40 40 39 39 44 50 52 48 48 49 46 45 45 48 48 50 49 41 48 57 60 56 55 61 60 59 58 60 60 51 65 71 62 62 62 68 68 77 77 70 64 59 53 40 56 79 108 121 128 126 124 134 128 122 124 130 126 122 131 129 107 86 39 340 226 189 146 133 117 124 155 171 184 178
40 40 38 37 39 42 46 50 46 46 43 43 42 43 44 46 47 43 46 51 59 64 58 56 60 60 61 61 60 53 55 58 61 65 63 63 56 58 68 69 55 50 54 46 47 64 87 108 120 118 107 99 112 119 121 115 97 115 120 119 133 112 145 33 34 33 89 96 78 52 10 26 281 153
34 40 41 41 40 44 49 53 52 48 41 40 37 37 38 41 43 47 48 51 55 57 61 59 58 56 61 65 62 59 65 62 55 65 71 71 69 68 70 82 75 61 44 46 45 45 71 84 102 117 110 97 82 88 103 103 112 111 101 114 124 122 161 20 29 37 35 60 61 54 21 12 20 22
33 42 42 40 36 40 43 41 42 40 41 41 39 38 37 38 40 43 51 55 56 53 54 60 57 52 53 57 54 55 56 58 54 52 63 66 64 68 74 64 69 75 63 45 45 39 50 57 76 78 101 117 115 109 93 95 108 114 103 96 87 66 44 85 69 34 31 84 55 36 25 25 20 1
47 46 45 40 38 39 43 40 39 36 39 37 36 38 36 37 37 40 41 50 45 37 48 52 53 55 55 54 49 52 57 55 64 58 64 60 69 65 79 87 86 86 82 67 59 50 56 61 57 73 78 73 92 113 114 101 85 103 123 129 107 78 55 43 95 101 77 71 60 50 45 24 25 20
52 43 48 41 42 43 47 49 45 40 42 41 37 30 24 27 32 35 38 42 43 44 52 53 59 61 65 68 68 75 77 66 54 57 91 99 102 97 94 87 75 74 89 92 84 88 83 81 82 73 73 69 54 51 94 116 118 120 119 129 113 114 121 100 60 49 79 115 116 69 40 11 4 17
45 42 46 39 38 38 39 42 38 36 38 35 38 33 31 30 30 30 35 30 44 46 49 44 46 53 64 69 65 73 72 74 64 54 53 72 74 98 107 103 91 88 95 95 100 102 104 106 103 95 85 85 76 50 26 65 122 123 114 92 128 123 115 74 92 52 62 42 63 106 102 11 1 344
41 38 48 45 40 38 43 35 35 33 36 30 35 33 42 32 25 36 33 21 48 48 56 59 56 58 60 61 56 58 64 73 64 68 62 68 77 74 71 82 93 87 89 102 115 112 106 116 116 114 113 107 106 94 35 354 36 147 120 140 131 115 110 91 70 70 61 54 45 109 105 124 298 309
45 36 43 47 40 40 41 35 39 36 39 40 37 36 40 35 12 30 13 44 58 53 60 66 61 63 69 72 67 57 53 69 73 68 78 77 84 89 90 73 79 94 91 79 110 124 106 100 104 112 110 104 105 113 119 307 356 9 132 125 104 98 109 83 74 56 23 95 45 76 141 156 12 300
45 38 43 38 40 37 41 39 42 38 34 36 46 45 42 36 30 24 21 48 40 52 52 64 62 66 60 67 80 75 68 69 77 71 69 88 95 82 90 96 82 77 82 60 65 84 102 119 124 124 122 123 124 127 124 330 44 3 24 117 120 135 91 84 73 101 46 25 104 201 102 84 101 273
32 34 35 35 23 33 41 34 48 47 40 41 40 38 36 32 33 38 43 44 44 50 55 59 54 56 72 66 66 82 84 76 72 74 77 71 92 104 99 102 89 69 83 64 57 58 78 101 128 136 132 137 147 163 151 137 138 188 6 51 128 116 145 126 144 217 204 74 49 4 13 280 242 294
21 39 22 23 27 33 31 28 34 34 40 33 39 28 39 35 32 31 31 30 43 46 60 64 67 68 54 55 77 71 61 70 82 87 90 90 85 95 101 97 108 107 84 76 68 65 85 108 135 149 154 145 142 137 137 127 132 5 339 331 171 149 166 137 155 158 191 228 173 80 54 360 51 322
26 33 14 18 31 29 34 28 26 36 31 19 31 33 39 35 36 24 34 33 34 45 49 43 54 67 66 64 69 91 86 69 72 79 86 87 86 94 105 102 84 94 102 90 89 79 79 131 148 121 109 107 112 100 80 80 104 252 276 287 294 294 179 175 159 157 175 168 129 122 123 98 356 354
42 41 28 28 35 19 24 23 13 26 27 26 34 31 29 30 23 27 32 34 44 44 46 38 40 62 58 52 65 68 80 86 86 80 89 101 95 80 80 96 113 114 109 118 118 114 8 10 90 101 104 109 114 113 150 159 169 203 258 293 300 5 252 229 201 188 161 142 121 106 95 16 43 24
49 49 42 34 40 32 24 15 13 17 10 23 29 20 27 29 26 25 21 28 37 48 47 49 40 60 55 55 59 79 91 86 91 96 97 101 112 117 109 98 108 107 108 122 79 80 56 77 91 101 99 84 86 117 159 190 200 220 251 281 274 313 353 16 258 245 220 197 179 163 166 161 125 120
51 57 44 37 46 38 30 27 21 17 17 16 23 40 41 51 46 30 31 32 39 45 41 50 30 36 39 44 56 45 50 71 91 97 94 90 99 110 119 118 107 101 102 99 76 48 67 76 81 129 136 153 125 115 155 143 208 214 201 246 307 9 333 322 355 357 343 292 278 275 240 185 168 168
62 69 58 38 37 39 38 40 46 36 34 30 43 49 46 47 45 43 38 34 31 31 41 39 44 43 48 40 76 72 51 62 74 66 81 76 74 96 111 123 109 95 77 91 96 58 51 72 51 55 77 98 101 143 168 166 179 169 208 91 238 319 313 4 45 1 359 347 4 5 248 266 307 33